Location: Memmingen
(47.9830°N, 10.1733°E)
Time: 19:10:48
(UTC+01:00)

ISS - Pass Details

Date: 06 January 2018
Orbit: 402 x 407 km, 51.6° (Epoch: 17 January)

Event Time Altitude Azimuth Distance (km) Brightness Sun altitude
Exits shadow 06:46:47 23° 306° (NW) 909 -2.6 -13.0°
Maximum altitude 06:48:25 43° 6° (N) 583 -3.2 -12.8°
Drops below altitude 10° 06:51:35 10° 80° (E) 1,470 0.0 -12.3°
Sets 06:53:44 0° 87° (E) 2,331 1.4 -12.0°
